Regional Weather Roundup
Issued by NWS

Home | Current Version | Previous Version | Graphics & Text | Print | Product List | Glossary On
Versions: 1 2 3 4 5 6 7 8 9 10 11 12 13 14 15 16 17 18 19 20 21 22 23 24 25 26 27 28 29 30 31 32 33 34 35 36 37 38 39 40 41 42 43 44 45 46 47 48 49 50
960
ASUS43 KLOT 281109
RWRIL

ILLINOIS REGIONAL WEATHER ROUNDUP
NATIONAL WEATHER SERVICE CHICAGO/ROMEOVILLE IL
600 AM CDT THU JUL 28 2016

NOTE: "FAIR" INDICATES FEW OR NO CLOUDS BELOW 12,000 FEET WITH NO
SIGNIFICANT WEATHER AND/OR OBSTRUCTIONS TO VISIBILITY.

* THESE STATIONS ARE NOT UNDER NWS QUALITY CONTROL. THEY ALSO MAY NOT
  REPORT WEATHER SUCH AS PRECIPITATION OR FOG.

ILZ001-002-007-009-015-016-024-281200-
NORTHWEST ILLINOIS

CITY           SKY/WX    TMP DP  RH WIND       PRES   REMARKS
MOLINE         CLEAR     68  65  90 W5        29.88S
STERLING*      CLOUDY    68  68 100 CALM      29.89S FOG
SAVANNA*       CLEAR     67  67  98 CALM      29.88S FOG
$$

ILZ003-004-008-010-011-017-018-281200-
NORTH CENTRAL ILLINOIS

CITY           SKY/WX    TMP DP  RH WIND       PRES   REMARKS
ROCKFORD       PTCLDY    70  66  87 CALM      29.90F
FREEPORT*      CLEAR     64  64  98 CALM      29.91S FOG
ROCHELLE*      CLOUDY    65  65  98 CALM      29.90S FOG
DE KALB*       CLOUDY    67  66  96 CALM      29.91S FOG
$$

ILZ005-006-012>014-019>023-281200-
NORTHEAST ILLINOIS

CITY           SKY/WX    TMP DP  RH WIND       PRES   REMARKS
CHICAGO-OHARE  MOCLDY    73  66  78 NE3       29.90R
CHICAGO-MIDWAY MOCLDY    76  66  71 CALM      29.90R
AURORA         PTCLDY    70  67  90 CALM      29.90S FOG
LANSING*       PTCLDY    68  65  90 CALM      29.91R
JOLIET*        CLOUDY    73  71  95 CALM      29.90R
WAUKEGAN       CLOUDY    66  65  96 N3        29.90S
DUPAGE AIRPORT PTCLDY    68  64  87 CALM      29.90R
KANKAKEE*      PTCLDY    68  66  94 CALM      29.91R
WHEELING       PTCLDY    71  67  87 CALM      29.91S
MORRIS*        CLOUDY    69  68  96 CALM      29.89R FOG
ROMEOVILLE*    MOCLDY    70  67  88 CALM      29.90R
NORTHERLY ISL    N/A     72  66  81 N3          N/A
$$

LMZ740>746-281200-
SOUTHERN LAKE MICHIGAN

STATION/POSITION SKY/WX   TEMP    WIND        PRES    VSBY  WAVE
                          AIR SEA DIR/SP/G                  HT/PER
                          (F)     (DEG/KT/KT) (MB)    (MI)  (FT/S)
SOUTHERN BUOY              73 75   30/ 10/ 12 1012.0S         0
WILMETTE HARBOR            74 71  100/  4/  4   N/A           1/ 3
HARRISON CRIB              77     330/  1/  1   N/A
BURNHAM HARBOR             72     350/  4       N/A
CALUMET HARBOR             72      20/  1/  2 1011.8F
BURNS HARBOR               71     180/  4/  5 1013.2S
MICHIGAN CITY              72     140/  4/  4   N/A
MICHIGAN CITY 6N           74 77  150/  4/  4   N/A           0
ST. JOSEPH                 75 76  210/  2/  4 1012.5R         1
$$

ILZ025>027-034>036-040-047-049-050-058-095>099-281200-
WEST-CENTRAL ILLINOIS

CITY           SKY/WX    TMP DP  RH WIND       PRES   REMARKS
QUINCY         PTCLDY    69  69 100 NE5       29.89R
GALESBURG*     PTCLDY    69  68  98 CALM      29.89S
MACOMB*        PTCLDY    67  67  99 CALM      29.92R FOG
JACKSONVILLE*  PTCLDY    69  68  96 CALM      29.89R FOG
PITTSFIELD*    PTCLDY    69  67  93 CALM      29.90S
$$

ILZ028>032-037-038-041>044-048-051>054-059>061-281200-
CENTRAL ILLINOIS

CITY           SKY/WX    TMP DP  RH WIND       PRES   REMARKS
PONTIAC        CLOUDY    72  72 100 CALM      29.90S FOG
BLOOMINGTON    CLOUDY    72  69  90 E3        29.91R
DECATUR        RAIN      71  69  93 CALM      29.89R FOG
PEORIA         PTCLDY    73  72  96 CALM      29.88S
LACON*         MOCLDY    69  68  95 CALM      29.88S
LINCOLN*       MOCLDY    73  73  99 CALM      29.88S
SPRINGFIELD    FOG       74  73  97 NW5       29.89S VSB<1/4
TAYLORVILLE    CLOUDY    71  71 100 MISG      29.89R FOG
$$

ILZ033-039-045-046-055>057-062-063-281200-
EAST-CENTRAL ILLINOIS

CITY           SKY/WX    TMP DP  RH WIND       PRES   REMARKS
CHAMPAIGN      CLOUDY    71  69  93 E3        29.91R
MATTOON        MOCLDY    72  70  93 CALM      29.89R
PARIS*         CLOUDY    72  71  99 CALM      29.91R
$$

ILZ079-100>102-281200-
SOUTHWEST ILLINOIS

CITY           SKY/WX    TMP DP  RH WIND       PRES   REMARKS
ALTON          CLEAR     69  69  97 CALM      29.89R
BELLEVILLE     PTCLDY    72  72 100 CALM      29.87R
CAHOKIA*       PTCLDY    72  70  93 CALM      29.88R FOG
SPARTA*        PTCLDY    73  71  96 S5        29.90S
$$

ILZ064>066-069>071-074>076-080>082-084>086-088>090-092>094-281200-
SOUTH-CENTRAL ILLINOIS

CITY           SKY/WX    TMP DP  RH WIND       PRES   REMARKS
CARBONDALE     MOCLDY    73  71  93 SE6       29.90R
CAIRO*         CLOUDY    73  73 100 CALM      29.90S
EFFINGHAM*     CLOUDY    73  73 100 E5        29.92R FOG
MARION         CLOUDY    73  73 100 S5        29.92R FOG
MT. VERNON     CLOUDY    73  68  83 MISG      29.89S
CENTRALIA*     CLOUDY    73  73  99 S5        29.88S
SALEM*         MOCLDY    74  72  92 SE3       29.89S
METROPOLIS*    CLOUDY    73  73  99 CALM      29.92S FOG
$$

ILZ067-068-072-073-078-083-087-091-281200-
SOUTHEAST ILLINOIS

CITY           SKY/WX    TMP DP  RH WIND       PRES   REMARKS
LAWRENCEVILLE  MOCLDY    73  73 100 CALM      29.90S FOG
FLORA*         PTCLDY    74  73  95 S5        29.90R
FAIRFIELD*     MOCLDY    73  73  99 S3        29.89R
HARRISBURG*    CLOUDY    73  73  98 SW5       29.92R
ROBINSON*      CLOUDY    73  73  99 CALM      29.91R FOG
CARMI*           N/A     73  73 100 S3        29.91R
$$

ABBREVIATIONS USED IN REMARKS
   TC - TEMPERATURE IN CELSIUS
  WCI - WIND CHILL INDEX
   HX - HEAT INDEX
  VSB - VISIBILITY
$$





USA.gov is the U.S. government's official web portal to all federal, state and local government web resources and services.